THEMIS D

Last updated on Oct. 22, 2020, 5:53 a.m. UTC

1 30797U 07004D   20293.73887570 -.00000209  00000-0  15296-1 0  9994
2 30797  13.6101  19.0992 8369383  72.6104 354.8142  0.87836829 47324
UTC
Height (km)
Latitude
Longitude
Inclination
Orbital Period
UTC large
Height (km)
Speed (km/s)
/
Latitude / Longitude
Inclination (degrees)
Orbital Period (minutes)
Azimuth
Elevation
Range (km)
Doppler Factor
iOS Compass Heading
iOS Angle

Next 30 passes for location: Hong Kong

Rise time Rise Azimuth (degrees) Set time Set Azimuth (degrees) Duration Max altitude (degrees)

No matching passes for this satellites